Location: Carbonear
(47.7333°N, 53.2500°W)
Time: 10:30:48
(UTC+00:00)

BEESAT - Visible Passes

Search period start: 30 November 2022 00:00
Search period end: 10 December 2022 00:00
Orbit: 699 x 706 km, 98.5° (Epoch: 29 November)

Date Brightness Start Highest point End Pass type
(mag) Time Alt. Az. Time Alt. Az. Time Alt. Az.
30 Nov ? 09:34:38 10° ENE 09:36:19 12° NE 09:38:01 10° NNE visible
01 Dec ? 10:14:41 10° ESE 10:18:33 25° ENE 10:22:26 10° N visible
03 Dec ? 10:03:03 10° ESE 10:06:30 20° ENE 10:09:58 10° NNE visible
05 Dec ? 09:51:34 10° E 09:54:28 16° ENE 09:57:23 10° NNE visible
07 Dec ? 09:40:19 10° E 09:42:27 13° NE 09:44:36 10° NNE visible
08 Dec ? 10:20:42 10° ESE 10:24:42 28° ENE 10:28:44 10° N visible
09 Dec ? 09:29:50 10° ENE 09:30:27 10° NE 09:31:04 10° NE visible
